Location: Aranbee
(34.0885°N, 118.2342°W)
Time: 13:24:03
(UTC+00:00)

Hubble Space Telescope - Visible Passes

Search period start: 04 October 2022 00:00
Search period end: 14 October 2022 00:00
Orbit: 531 x 535 km, 28.5° (Epoch: 03 October)

Date Brightness Start Highest point End Pass type
(mag) Time Alt. Az. Time Alt. Az. Time Alt. Az.
04 Oct 2.7 02:27:44 10° WSW 02:30:53 22° SSW 02:34:02 10° SE visible
05 Oct 2.9 02:15:39 10° WSW 02:18:32 19° SSW 02:21:26 10° SSE visible
06 Oct 3.2 02:03:39 10° WSW 02:06:10 16° SSW 02:08:42 10° SSE visible
